Weather History for Pittsburg, KS

Change the Weather History Date:

Saturday, September 28, 2013

  Actual Average (KJLN) Record (KJLN)
Temperature  
Mean Temperature 64 °F 66 °F  
Max Temperature 76 °F 77 °F 104 °F (1953)
Min Temperature 52 °F 54 °F 37 °F (1967)
Degree Days  
Heating Degree Days 0 3  
Month to date heating degree days 31  
Since 1 July heating degree days 32  
Cooling Degree Days 0 4  
Month to date cooling degree days 207  
Year to date cooling degree days 1634  
Growing Degree Days 14 (Base 50)    
Moisture  
Dew Point 61 °F    
Average Humidity 75    
Maximum Humidity 100    
Minimum Humidity 60    
Precipitation  
Precipitation 0.27 in 0.16 in 1.73 in (1975)
Month to date precipitation 4.64  
Year to date precipitation 35.61  
Sea Level Pressure  
Sea Level Pressure 29.96 in    
Wind  
Wind Speed 10 mph (SSW)    
Max Wind Speed 15 mph    
Max Gust Speed 25 mph    
Visibility 8 miles    
Events      
T = Trace of Precipitation, MM = Missing Value Source: NWS Daily Summary

Daily Weather History Graph

Daily Weather History Graph

Search for Another Location

Airport:

Trip Planner

Search our weather history database for the weather conditions in past years. The results will help you decide how hot, cold, wet, or windy it might be!

Date:

Astronomy

Sep. 28, 2013 Rise Set
Actual Time 7:12 AM CDT 7:06 PM CDT
Civil Twilight 6:46 AM CDT 7:32 PM CDT
Nautical Twilight 6:15 AM CDT 8:02 PM CDT
Astronomical Twilight 5:45 AM CDT 8:33 PM CDT
Moon 1:06 AM CDT (9/28) 3:19 PM CDT (9/28)
Length of Visible Light 12h 46m
Length of Day
11h 54m
Waning Crescent, 36% of the Moon is Illuminated
Sep 28
Waning Crescent
Oct 4
New
Oct 11
First Quarter
Oct 18
Full
Oct 26
Last Quarter

Hourly Weather History & Observations

Time (CDT) Temp. Dew Point Humidity Pressure Visibility Wind Dir Wind Speed Gust Speed Precip Events Conditions
12:15 AM 70.9 °F 59.7 °F 68% 29.90 in 10.0 mi SSE 10.4 mph - N/A   Clear
12:35 AM 70.9 °F 59.9 °F 68% 29.89 in 10.0 mi SSE 10.4 mph - N/A   Scattered Clouds
12:55 AM 70.9 °F 59.7 °F 68% 29.89 in 10.0 mi SSE 10.4 mph - N/A   Scattered Clouds
1:15 AM 71.6 °F 59.7 °F 66% 29.89 in 10.0 mi South 13.8 mph 17.3 mph N/A   Clear
1:35 AM 73.2 °F 60.1 °F 63% 29.89 in 10.0 mi South 11.5 mph - N/A   Clear
1:55 AM 73.4 °F 59.7 °F 62% 29.89 in 10.0 mi South 11.5 mph 20.7 mph N/A   Scattered Clouds
2:15 AM 73.8 °F 59.7 °F 61% 29.88 in 10.0 mi South 12.7 mph 20.7 mph N/A   Mostly Cloudy
2:35 AM 73.8 °F 59.7 °F 61% 29.88 in 10.0 mi South 13.8 mph 19.6 mph N/A   Mostly Cloudy
2:55 AM 75.0 °F 60.8 °F 61% 29.87 in 10.0 mi South 11.5 mph - N/A   Overcast
3:15 AM 75.9 °F 61.7 °F 61% 29.87 in 10.0 mi South 12.7 mph 18.4 mph N/A   Overcast
3:35 AM 76.1 °F 61.5 °F 60% 29.87 in 10.0 mi South 13.8 mph 18.4 mph N/A   Overcast
3:55 AM 76.1 °F 61.3 °F 60% 29.87 in 10.0 mi South 15.0 mph - N/A   Mostly Cloudy
4:15 AM 76.1 °F 61.2 °F 60% 29.87 in 10.0 mi South 10.4 mph 16.1 mph N/A   Overcast
4:35 AM 76.1 °F 61.5 °F 60% 29.87 in 10.0 mi South 12.7 mph - N/A   Overcast
4:55 AM 76.1 °F 61.2 °F 60% 29.88 in 10.0 mi South 15.0 mph 21.9 mph N/A   Overcast
5:15 AM 76.1 °F 61.3 °F 60% 29.88 in 10.0 mi South 11.5 mph - N/A   Mostly Cloudy
5:35 AM 75.6 °F 61.3 °F 61% 29.88 in 10.0 mi South 11.5 mph 18.4 mph N/A   Scattered Clouds
5:55 AM 73.4 °F 59.9 °F 63% 29.87 in 10.0 mi South 13.8 mph 20.7 mph N/A   Scattered Clouds
6:15 AM 73.9 °F 60.4 °F 63% 29.88 in 10.0 mi South 12.7 mph - N/A   Scattered Clouds
6:35 AM 75.6 °F 61.7 °F 62% 29.87 in 10.0 mi South 15.0 mph 20.7 mph N/A   Scattered Clouds
6:55 AM 75.2 °F 61.3 °F 62% 29.87 in 10.0 mi South 15.0 mph 18.4 mph N/A   Clear
7:15 AM 74.7 °F 61.0 °F 62% 29.87 in 10.0 mi South 12.7 mph 19.6 mph N/A   Scattered Clouds
7:35 AM 75.0 °F 61.3 °F 62% 29.87 in 10.0 mi South 13.8 mph - N/A   Scattered Clouds
7:55 AM 76.1 °F 61.9 °F 61% 29.87 in 10.0 mi South 13.8 mph 20.7 mph N/A   Scattered Clouds
8:15 AM 76.1 °F 62.1 °F 62% 29.88 in 10.0 mi South 13.8 mph 23.0 mph N/A   Scattered Clouds
8:35 AM 76.1 °F 62.1 °F 62% 29.89 in 10.0 mi South 13.8 mph 20.7 mph N/A   Mostly Cloudy
8:55 AM 76.1 °F 62.2 °F 62% 29.93 in 10.0 mi West 13.8 mph 25.3 mph N/A   Overcast
9:15 AM 74.7 °F 63.9 °F 69% 29.94 in 2.0 mi WSW 10.4 mph 18.4 mph 0.03 in   Overcast
9:35 AM 70.9 °F 69.6 °F 96% 29.96 in 4.0 mi WSW 15.0 mph 19.6 mph 0.07 in   Overcast
9:55 AM 70.9 °F - N/A% 29.96 in 3.0 mi SSW 8.1 mph - 0.09 in   Overcast
10:35 AM 70.9 °F - N/A% 29.97 in 5.0 mi SSW 11.5 mph - 0.02 in   Overcast
10:55 AM 70.9 °F - N/A% 29.97 in 4.0 mi SSW 8.1 mph - 0.03 in   Mostly Cloudy
11:15 AM 70.9 °F - N/A% 29.98 in 4.0 mi SW 11.5 mph - 0.01 in   Overcast
11:35 AM 70.9 °F - N/A% 29.98 in 5.0 mi SSW 9.2 mph - 0.02 in   Overcast
11:55 AM 70.9 °F - N/A% 29.98 in 4.0 mi SW 9.2 mph - 0.04 in   Overcast
12:15 PM 70.9 °F - N/A% 29.98 in 10.0 mi SSW 8.1 mph - 0.01 in   Overcast
12:35 PM 70.9 °F - N/A% 29.97 in 10.0 mi SSW 5.8 mph - 0.02 in   Overcast
12:55 PM 70.9 °F - N/A% 29.97 in 10.0 mi WSW 5.8 mph - 0.03 in   Overcast
1:15 PM 70.9 °F - N/A% 29.97 in 7.0 mi WSW 6.9 mph - 0.01 in   Overcast
1:35 PM 70.9 °F - N/A% 29.96 in 7.0 mi SW 8.1 mph - 0.02 in   Overcast
1:55 PM 70.9 °F - N/A% 29.97 in 10.0 mi West 6.9 mph - 0.02 in   Overcast
2:15 PM 64.8 °F 63.3 °F 95% 29.98 in 7.0 mi NW 8.1 mph 19.6 mph N/A   Overcast
2:35 PM 60.8 °F - N/A% 29.99 in 10.0 mi NNW 9.2 mph 19.6 mph 0.01 in   Overcast
2:55 PM 60.8 °F - N/A% 29.99 in 10.0 mi NNW 5.8 mph - 0.01 in   Overcast
3:15 PM 60.8 °F - N/A% 29.98 in 10.0 mi North 9.2 mph - N/A   Mostly Cloudy
3:35 PM 60.8 °F - N/A% 29.98 in 10.0 mi North 8.1 mph - 0.01 in   Overcast
3:55 PM 60.8 °F - N/A% 29.99 in 10.0 mi North 5.8 mph - 0.01 in   Overcast
4:15 PM 60.8 °F 61.0 °F 100% 29.99 in 10.0 mi North 3.5 mph - N/A   Overcast
4:35 PM 60.8 °F 61.0 °F 100% 29.99 in 10.0 mi North 5.8 mph - 0.01 in   Overcast
4:55 PM 60.8 °F 61.0 °F 100% 30.00 in 10.0 mi North 6.9 mph - 0.01 in   Overcast
5:15 PM 60.8 °F 61.0 °F 100% 30.00 in 5.0 mi NNW 9.2 mph - N/A   Overcast
5:35 PM 60.8 °F 61.0 °F 100% 30.01 in 7.0 mi North 5.8 mph - 0.01 in   Overcast
5:55 PM 60.8 °F 61.0 °F 100% 30.01 in 10.0 mi North 4.6 mph - 0.01 in   Overcast
6:15 PM 60.8 °F 61.0 °F 100% 30.01 in 10.0 mi North 3.5 mph - N/A   Overcast
6:35 PM 60.8 °F 61.0 °F 100% 30.02 in 10.0 mi Calm Calm - N/A   Mostly Cloudy
6:55 PM 60.8 °F 61.0 °F 100% 30.02 in 10.0 mi North 4.6 mph - 0.01 in   Mostly Cloudy
7:15 PM 60.8 °F 61.0 °F 100% 30.02 in 10.0 mi Calm Calm - N/A   Scattered Clouds
7:35 PM 60.8 °F 61.0 °F 100% 30.03 in 10.0 mi Calm Calm - N/A   Clear
7:55 PM 60.4 °F 61.0 °F 100% 30.04 in 10.0 mi Calm Calm - N/A   Clear
8:15 PM 58.6 °F - N/A% 30.06 in 10.0 mi Calm Calm - N/A   Clear
8:35 PM 58.3 °F - N/A% 30.06 in 10.0 mi Calm Calm - N/A   Clear
8:55 PM 57.6 °F - N/A% 30.06 in 4.0 mi Calm Calm - N/A   Clear
9:15 PM 56.5 °F - N/A% 30.07 in 3.0 mi Calm Calm - N/A   Clear
9:35 PM 55.8 °F - N/A% 30.07 in 10.0 mi Calm Calm - N/A   Clear
9:55 PM 55.8 °F - N/A% 30.08 in 10.0 mi Calm Calm - 0.01 in   Clear
10:15 PM 55.8 °F - N/A% 30.08 in 1.8 mi Calm Calm - N/A   Unknown
10:35 PM 55.8 °F - N/A% 30.09 in 1.5 mi Calm Calm - N/A   Unknown
10:55 PM 55.8 °F - N/A% 30.09 in 0.8 mi Calm Calm - N/A   Unknown
11:15 PM 54.5 °F - N/A% 30.09 in 0.5 mi Calm Calm - N/A   Mostly Cloudy
11:35 PM 53.2 °F - N/A% 30.09 in 0.5 mi Calm Calm - N/A   Overcast
11:55 PM 52.9 °F - N/A% 30.09 in 0.5 mi Calm Calm - N/A   Overcast